Simultaneous Nadir Overpasses (SNOs) Predictions

Prediction of SNOs between NOAA-20 and NOAA-19 Satellite Orbit:

Table of predicted SNOs for the next 14.0 days since TLE Epoch: 1/2/2021
Index Date (NOAA-20) Time (NOAA-20) Lat,Lon (NOAA-20) SZA (NOAA-20 ) Date (NOAA-19) Time (NOAA-19) Lat,Lon (NOAA-19) SZA (NOAA-19 ) Distance(km) Time Diff (sec)
1 01/09/2021 05:19:08 -78.47,-107.18 78.15 01/09/2021 05:18:01 -78.50,-110.29 77.80 69.12 67
2 01/09/2021 06:10:00 78.72, 58.61 102.21 01/09/2021 06:08:58 78.75, 58.70 102.25 3.17 62
3 01/09/2021 07:00:45 -78.74,-134.19 77.77 01/09/2021 06:59:55 -78.72,-134.23 77.76 2.44 50
4 01/09/2021 07:51:30 78.73, 33.21 102.21 01/09/2021 07:50:59 78.73, 33.06 102.24 3.28 31
5 01/09/2021 08:42:15 -78.75,-159.59 77.77 01/09/2021 08:41:55 -78.74,-159.61 77.77 1.17 20
6 01/09/2021 09:33:00 78.73, 7.81 102.21 01/09/2021 09:32:59 78.74, 7.67 102.23 3.37 1
7 01/09/2021 10:23:45 -78.75, 175.02 77.78 01/09/2021 10:23:55 -78.75, 175.00 77.78 0.48 10
8 01/09/2021 11:14:31 78.77, -17.82 102.26 01/09/2021 11:14:59 78.76, -17.71 102.22 2.73 28
9 01/09/2021 12:05:15 -78.75, 149.62 77.78 01/09/2021 12:05:55 -78.77, 149.61 77.79 1.59 40
10 01/09/2021 12:56:01 78.78, -43.22 102.25 01/09/2021 12:56:59 78.77, -43.10 102.22 2.58 58
11 01/09/2021 13:46:45 -78.76, 124.22 77.79 01/09/2021 13:47:55 -78.78, 124.22 77.79 2.86 70



Historial Predications of SNOs between NOAA-20 and NOAA-19
